Flag for Germany Weather past 2 weeks in Rodgau, Hesse, Germany

Now
45 °F

Passing clouds.


Feels Like: 43 °F
Forecast: 34 / 50 °F
Wind: 3 mph from Southwest

Location: Frankfurt / M-Flughafen

Current Time: Feb 28, 2015 at 6:01:47 PM

Latest Report: Feb 28, 2015 at 5:00 PM


Visibility: 31 mi

Pressure: 30.08 "Hg

Humidity: 54%

Dew point: 29 °F

Location of RodgauLocation

Historic Weather in Rodgau — Graph

°F

Rodgau temperature yesterday

Maximum temperature yesterday: 42 °F (at 12:00 AM)
Minimum temperature yesterday: 38 °F (at 7:00 AM)
Average temperature yesterday: 40 °F

Past Weeks' High & Low Weather Summary

 TemperatureHumidityPressure
High52 °F (Feb 20, 5:00 PM)100% (Feb 23, 12:00 PM)30.77 "Hg (Feb 23, 12:00 PM)
Low25 °F (Feb 15, 5:00 AM)51% (Feb 21, 1:00 AM)29.47 "Hg (Feb 21, 6:00 AM)
Average38 °F82%30.04 "Hg
* Reported Feb 13 5:00 PM — Feb 28 5:00 PM, Rodgau, Weather by CustomWeather, © 2015

Note: Actual official high and low records may vary slightly from our data, if they occured in-between our weather recording intervals... More about our weather records

Advertising

Rodgau weather history for previous 24 hours

 ConditionsComfort  
Time TempWeatherWind HumidityBarometerVisibility
5:00 PM
Sat, Feb 28
45 °FPassing clouds.3 mph54%30.08 "Hg31 mi
4:00 PM45 °FScattered clouds.6 mph53%30.09 "Hg28 mi
3:00 PM45 °FOvercast.6 mph57%30.11 "Hg25 mi
2:00 PM45 °FPartly sunny.5 mph60%30.12 "Hg22 mi
1:00 PM43 °FScattered clouds.5 mph62%30.16 "Hg22 mi
12:00 PM42 °FPassing clouds.3 mph70%30.18 "Hg17 mi
11:00 AM40 °FPassing clouds.2 mph75%30.20 "Hg12 mi
10:00 AM36 °FPassing clouds.3 mph83%30.21 "Hg10 mi
9:00 AM33 °FPassing clouds.3 mph92%30.22 "Hg9 mi
8:00 AM29 °FPassing clouds.2 mph97%30.21 "Hg9 mi
7:00 AM29 °FPassing clouds.2 mph97%30.20 "Hg9 mi
6:00 AM31 °FPassing clouds.2 mph96%30.19 "Hg12 mi
5:00 AM32 °FPassing clouds.2 mph95%30.19 "Hg16 mi
3:00 AM37 °FPassing clouds.5 mph81%30.17 "Hg22 mi
2:00 AM38 °FPassing clouds.3 mph76%30.17 "Hg25 mi
1:00 AM38 °FOvercast.3 mph82%30.17 "Hg25 mi
12:00 AM38 °FOvercast.5 mph88%30.16 "Hg19 mi
11:00 PM
Fri, Feb 27
40 °FLight rain. Overcast.5 mph78%30.15 "Hg19 mi
9:00 PM40 °FLight rain. Overcast.2 mph86%30.12 "Hg16 mi
8:00 PM40 °FLight rain. Overcast.3 mph83%30.10 "Hg12 mi
7:00 PM40 °FLight rain. Overcast.1 mph84%30.08 "Hg12 mi
6:00 PM40 °FLight rain. Overcast.3 mph88%30.05 "Hg17 mi
Weather by CustomWeather, © 2015

See weather overviewHow to use our weather pages